[[{"header":{"parameterUnit":"m.s-1","parameterCategory":1,"la1":30.2991,"la2":30.254,"lo1":-89.0895,"lo2":-89.0444,"dy":0.0017,"dx":0.0017,"nx":28,"ny":28,"refTime":"2026-02-02T03:00:00:Z","depth":0,"parameterNumber":2,"parameterNumberName":"U-component_of_WINDS"},"data":[0,0,0,0,0,0,0,0,0,0,0,0,0,0,0,0,0,0,0,0,0,0,0,0,0,0,0,0,0,0,0,0,0,0,0,0,0,0,0,0,0,0,0,0,0,0,0,0,0,0,0,0,0,0,0,0,0,0,1.6577,1.6579,0,1.6713,1.6714,1.6716,1.6745,1.6744,1.6743,1.6742,1.6879,1.6884,1.6888,0,0,0,0,0,0,0,0,0,0,0,0,0,1.634,1.6344,1.6577,1.6579,1.658,1.6712,1.6714,1.6716,1.6745,1.6744,1.6743,1.6742,1.6878,1.6883,1.6889,0,0,0,0,0,0,0,0,0,0,0,0,0,1.6456,1.6346,1.6577,1.6611,1.6615,1.6712,1.6714,1.6717,1.6746,1.6744,1.6743,1.6741,1.6876,1.6883,1.689,1.6961,0,0,1.691,1.6913,0,0,0,0,0,0,0,0,1.6449,1.6465,1.6604,1.6609,1.6614,1.6711,1.6681,1.6799,1.6746,1.6696,1.6742,1.6741,1.6824,1.6835,1.6864,1.6968,1.6973,1.6911,1.6915,1.6918,1.692,0,0,0,0,0,0,0,1.6441,1.6459,1.6631,1.6606,1.6612,1.6619,1.6633,1.6704,1.6767,1.67,1.6703,1.6719,1.6827,1.6857,1.6867,1.6976,1.6911,1.6917,1.6921,1.6924,1.7143,1.7144,0,0,0,0,0,0,1.6428,1.6452,1.6626,1.6635,1.6526,1.6624,1.6641,1.6681,1.6766,1.6778,1.672,1.6719,1.6846,1.6859,1.6872,1.696,1.6918,1.6925,1.6928,1.7141,1.7143,1.7145,0,0,0,0,0,0,1.6423,1.6443,1.6621,1.6544,1.6567,1.663,1.6675,1.6684,1.6715,1.6781,1.6792,1.674,1.6846,1.6863,1.6939,1.6965,1.6928,1.6934,1.7139,1.7142,1.7144,1.7137,0,0,0,0,0,0,1.6416,1.6441,1.647,1.6545,1.6571,1.6686,1.6677,1.6688,1.6727,1.6728,1.6802,1.6813,1.6846,1.6928,1.6945,1.6974,1.6939,1.7137,1.714,1.7143,1.7135,1.7139,1.7143,0,0,0,0,0,1.6407,1.6462,1.6471,1.6492,1.6608,1.6687,1.6702,1.6739,1.6729,1.6758,1.68,1.6811,1.696,1.6936,1.6955,1.6987,1.7135,1.7139,1.7143,1.7134,1.7139,1.7143,0,0,0,0,0,0,1.6388,1.6473,1.6483,1.6565,1.6618,1.6692,1.6729,1.6743,1.6801,1.6799,1.6842,1.6859,1.6931,1.6967,1.6938,1.7059,1.7047,1.7055,1.7033,1.7039,1.7042,1.7031,1.6945,0,0,0,0,0,1.6394,1.6451,1.6522,1.6587,1.6613,1.6666,1.6702,1.6726,1.6783,1.6806,1.6854,1.6908,1.6967,1.7005,1.7063,1.7141,1.7157,1.7172,1.7176,1.7178,1.7184,1.7226,1.7233,1.7157,1.7157,1.7157,0,0,1.6405,1.6459,1.6492,1.6584,1.6629,1.6686,1.6685,1.6747,1.6789,1.6815,1.6889,1.6926,1.699,1.7066,1.7102,1.7098,1.7209,1.7183,1.7185,1.719,1.7231,1.7238,1.7244,1.716,1.716,1.7159,0,0,1.6455,1.6502,1.6561,1.6605,1.6673,1.6708,1.6722,1.6793,1.6818,1.6894,1.6914,1.6965,1.7066,1.711,1.7146,1.7211,1.7223,1.7229,1.7247,1.7288,1.7294,1.7299,1.7321,1.7328,1.7235,1.7235,1.7235,0,1.6461,1.6549,1.6589,1.6649,1.6688,1.6714,1.6773,1.6814,1.6897,1.6922,1.6917,1.7043,1.7088,1.7174,1.719,1.7219,1.7235,1.722,1.729,1.7296,1.7302,1.7323,1.7331,1.7235,1.7235,1.7235,1.7235,0,1.6552,1.6612,1.6651,1.6731,1.6774,1.6833,1.6881,1.692,1.694,1.6975,1.705,1.7105,1.7173,1.7196,1.7216,1.7285,1.728,1.7282,1.727,1.7308,1.7329,1.7337,1.7235,1.7235,1.7235,1.7235,0,0,1.6593,1.6693,1.6707,1.6742,1.6819,1.6866,1.6925,1.6993,1.7025,1.7081,1.7131,1.7216,1.7217,1.7257,1.7283,1.7318,1.7364,1.7316,1.7318,1.7321,1.7441,1.7438,1.7447,1.7373,1.7375,1.7376,1.7435,0,1.6651,1.6759,1.6796,1.6885,1.694,1.6966,1.7018,1.7069,1.7103,1.7155,1.7192,1.7251,1.725,1.7274,1.731,1.7351,1.7389,1.7348,1.7418,1.742,1.74,1.7458,1.7456,1.7509,1.7444,1.7445,1.7446,0,1.6733,1.6791,1.6885,1.6953,1.6977,1.7023,1.7087,1.7137,1.7195,1.7217,1.7262,1.7284,1.7346,1.7331,1.7416,1.7387,1.7418,1.7443,1.7446,1.7452,1.7435,1.7465,1.7527,1.7534,1.746,1.7459,1.7458,0,1.6752,1.6853,1.6922,1.6952,1.7033,1.7064,1.7099,1.7157,1.7194,1.725,1.7275,1.7337,1.7371,1.7418,1.7456,1.7442,1.7537,1.7526,1.7555,1.7554,1.7573,1.7571,1.7639,1.7596,1.7596,1.7596,1.7595,0,1.6812,1.6868,1.6931,1.6973,1.7036,1.7078,1.7139,1.7175,1.7226,1.7275,1.7301,1.7346,1.7394,1.7445,1.7475,1.754,1.7555,1.7574,1.7581,1.7571,1.7568,1.7591,1.7587,1.7598,1.7597,1.7597,1.7596,0,1.6843,1.6887,1.6964,1.7035,1.7054,1.7097,1.7157,1.7198,1.7234,1.7295,1.7312,1.7367,1.7428,1.7471,1.755,1.757,1.7639,1.7646,1.7619,1.7622,1.7649,1.7645,1.7733,1.7746,1.7695,1.7695,1.7696,0,1.6877,1.6921,1.6996,1.7031,1.7067,1.7123,1.7161,1.7203,1.7242,1.7311,1.7344,1.7407,1.746,1.7556,1.7603,1.7663,1.7671,1.7697,1.768,1.7668,1.7669,1.7665,1.7669,1.7699,1.77,1.77,1.77,0,1.6933,1.6953,1.7008,1.7071,1.7116,1.7167,1.7219,1.7246,1.7297,1.7339,1.7402,1.7443,1.7523,1.7585,1.7649,1.7684,1.77,1.7706,1.7715,1.7705,1.7686,1.7695,1.7625,1.7703,1.7703,1.7703,1.7702,1.7702,1.6966,1.7005,1.7064,1.7124,1.7168,1.7215,1.7257,1.7297,1.7351,1.742,1.7441,1.7506,1.7562,1.765,1.7686,1.7737,1.7735,1.775,1.7753,1.7756,1.7754,1.7679,1.7749,1.7749,1.7749,1.7749,1.7749,0,1.7022,1.7061,1.7116,1.7187,1.7234,1.7246,1.7303,1.7341,1.7398,1.7449,1.7501,1.7572,1.7632,1.7683,1.7744,1.7775,1.7784,1.779,1.7787,1.7795,1.7753,1.7738,1.7781,1.7781,1.7781,1.7781,1.7781,1.7781,1.7056,1.7123,1.7149,1.7237,1.7276,1.734,1.7372,1.7415,1.7456,1.7535,1.7585,1.7618,1.7669,1.7734,1.7789,1.7802,1.7823,1.7827,1.7841,1.7802,1.7798,1.7794,1.778,1.7831,1.7831,1.7878,1.7879,1.7879]},{"header":{"parameterUnit":"m.s-1","parameterCategory":1,"la1":30.2991,"la2":30.254,"lo1":-89.0895,"lo2":-89.0444,"dy":0.0017,"dx":0.0017,"nx":28,"ny":28,"refTime":"2026-02-02T03:00:00:Z","depth":0,"parameterNumber":3,"parameterNumberName":"V-component_of_WINDS"},"data":[0,0,0,0,0,0,0,0,0,0,0,0,0,0,0,0,0,0,0,0,0,0,0,0,0,0,0,0,0,0,0,0,0,0,0,0,0,0,0,0,0,0,0,0,0,0,0,0,0,0,0,0,0,0,0,0,0,0,3.6985,3.6985,0,3.6989,3.6989,3.6989,3.6937,3.6935,3.6934,3.6933,3.6937,3.6938,3.6939,0,0,0,0,0,0,0,0,0,0,0,0,0,3.693,3.6931,3.6985,3.6985,3.6985,3.6989,3.6989,3.6989,3.6937,3.6935,3.6934,3.6932,3.6936,3.6938,3.694,0,0,0,0,0,0,0,0,0,0,0,0,0,3.6946,3.6932,3.6985,3.6959,3.6957,3.6989,3.6989,3.6989,3.6937,3.6935,3.6933,3.6931,3.6936,3.6938,3.694,3.6996,0,0,3.6946,3.6947,0,0,0,0,0,0,0,0,3.6945,3.6948,3.6963,3.6961,3.6959,3.696,3.6971,3.6991,3.6938,3.6945,3.6933,3.693,3.6946,3.6947,3.6953,3.6996,3.6996,3.6946,3.6948,3.6949,3.6949,0,0,0,0,0,0,0,3.6944,3.6948,3.6986,3.6963,3.6961,3.6947,3.6947,3.6975,3.6957,3.6944,3.694,3.6942,3.6944,3.6951,3.6952,3.6996,3.6946,3.6948,3.695,3.6951,3.7083,3.7086,0,0,0,0,0,0,3.6947,3.6947,3.6986,3.6986,3.6946,3.695,3.695,3.6962,3.6957,3.6954,3.6943,3.6939,3.6948,3.695,3.6952,3.7016,3.6949,3.6951,3.6952,3.7081,3.7084,3.7086,0,0,0,0,0,0,3.6946,3.6951,3.6986,3.6966,3.6969,3.6953,3.6967,3.6963,3.6969,3.6956,3.6953,3.6953,3.6947,3.6949,3.6985,3.7015,3.6952,3.6954,3.7079,3.7082,3.7085,3.7145,0,0,0,0,0,0,3.6944,3.695,3.6972,3.6966,3.697,3.7019,3.6969,3.6965,3.6973,3.6967,3.6965,3.6962,3.6945,3.6982,3.6987,3.7017,3.6955,3.7076,3.708,3.7084,3.714,3.715,3.7158,0,0,0,0,0,3.6942,3.6989,3.6973,3.6978,3.6997,3.7021,3.7023,3.7003,3.6976,3.6997,3.6988,3.6962,3.7012,3.6986,3.6991,3.7023,3.7074,3.7079,3.7084,3.7136,3.7148,3.7158,0,0,0,0,0,0,3.6999,3.6988,3.697,3.7017,3.702,3.7012,3.7038,3.7016,3.7027,3.7022,3.6996,3.6996,3.7035,3.7033,3.7004,3.7076,3.7038,3.7044,3.7076,3.7087,3.7096,3.7095,3.6957,0,0,0,0,0,3.7017,3.7037,3.7027,3.7068,3.7071,3.7054,3.7064,3.7048,3.705,3.7052,3.7046,3.7049,3.7065,3.7076,3.709,3.714,3.7138,3.7164,3.7173,3.718,3.7186,3.721,3.7221,3.7103,3.7103,3.7103,0,0,3.7054,3.705,3.7065,3.708,3.708,3.7101,3.7056,3.7081,3.7096,3.7055,3.7088,3.7084,3.7086,3.7128,3.7146,3.7127,3.7218,3.7187,3.7193,3.7194,3.7217,3.7228,3.7238,3.7106,3.7106,3.7105,0,0,3.7132,3.7132,3.7166,3.7167,3.7169,3.7157,3.7165,3.716,3.7156,3.7189,3.7158,3.7176,3.7204,3.7206,3.7211,3.7288,3.7264,3.7294,3.7341,3.7365,3.7374,3.7382,3.7408,3.7418,3.7299,3.73,3.73,0,3.7178,3.7209,3.7186,3.7213,3.7219,3.7183,3.7217,3.7219,3.7225,3.723,3.7209,3.7243,3.7242,3.7283,3.7302,3.7307,3.7315,3.7293,3.7375,3.7383,3.739,3.7415,3.7425,3.7303,3.7303,3.7302,3.7302,0,3.7264,3.7286,3.7313,3.7319,3.7329,3.7359,3.734,3.7353,3.7336,3.7326,3.7359,3.7356,3.7368,3.7377,3.7361,3.7416,3.7404,3.7379,3.734,3.7405,3.7428,3.7437,3.7308,3.7307,3.7306,3.7305,0,0,3.7378,3.7371,3.7381,3.7382,3.7381,3.7397,3.7425,3.7436,3.7447,3.7452,3.7474,3.7498,3.7475,3.748,3.7464,3.7485,3.7545,3.7457,3.7457,3.7473,3.7604,3.7621,3.7633,3.7529,3.7531,3.7532,3.7603,0,3.7453,3.75,3.748,3.7528,3.7547,3.7512,3.7536,3.7538,3.7529,3.7544,3.7535,3.7552,3.752,3.7523,3.7543,3.7534,3.7571,3.7528,3.7548,3.7549,3.7548,3.7645,3.7664,3.7731,3.7612,3.7613,3.7614,0,3.7546,3.7555,3.7605,3.7598,3.7605,3.7627,3.7635,3.765,3.765,3.7642,3.7648,3.7627,3.7652,3.7615,3.7649,3.7621,3.7628,3.7625,3.7627,3.7627,3.7585,3.7646,3.7752,3.7761,3.7628,3.7627,3.7626,0,3.7623,3.7646,3.7679,3.7681,3.7675,3.7691,3.7689,3.7687,3.7695,3.7702,3.7706,3.7717,3.7722,3.7731,3.7712,3.7687,3.7749,3.771,3.7743,3.7743,3.7757,3.7756,3.7863,3.7764,3.7763,3.7763,3.7763,0,3.7707,3.7739,3.7712,3.7732,3.7766,3.7743,3.7777,3.7771,3.777,3.7787,3.7759,3.7776,3.7751,3.7766,3.7752,3.7782,3.7785,3.7779,3.7775,3.7781,3.7781,3.7784,3.7779,3.7766,3.7765,3.7765,3.7764,0,3.7798,3.7782,3.7814,3.7805,3.7803,3.7829,3.782,3.7838,3.7828,3.785,3.7854,3.7838,3.7853,3.7836,3.7851,3.7841,3.7881,3.7871,3.7881,3.7877,3.791,3.7907,3.8023,3.8036,3.7929,3.793,3.7931,0,3.7852,3.7876,3.7868,3.7878,3.7877,3.7893,3.7901,3.7878,3.7887,3.7888,3.7906,3.7919,3.7928,3.7954,3.7944,3.7954,3.7943,3.7983,3.7944,3.7949,3.7942,3.794,3.7942,3.799,3.7992,3.7993,3.7993,0,3.795,3.7941,3.7952,3.7961,3.797,3.7976,3.798,3.7989,3.7966,3.7977,3.7992,3.7999,3.8014,3.8026,3.8034,3.8031,3.8008,3.8006,3.8013,3.8019,3.8024,3.802,3.7901,3.8003,3.8002,3.8001,3.8001,3.8,3.8023,3.8041,3.8039,3.8052,3.8052,3.8056,3.8072,3.8063,3.8075,3.8084,3.807,3.8089,3.8088,3.8095,3.8095,3.8109,3.8092,3.8104,3.8107,3.8109,3.8114,3.8023,3.8111,3.811,3.811,3.811,3.811,0,3.8118,3.8114,3.8127,3.8132,3.8143,3.812,3.8122,3.8132,3.8149,3.8149,3.8159,3.8176,3.8188,3.8178,3.8188,3.8201,3.819,3.8204,3.8202,3.8202,3.8129,3.8121,3.8212,3.8212,3.8212,3.8212,3.8212,3.8212,3.8169,3.8198,3.8188,3.8216,3.8212,3.823,3.8233,3.8236,3.8236,3.8256,3.8265,3.8259,3.8255,3.8264,3.8274,3.8271,3.8275,3.8292,3.8285,3.8217,3.8207,3.8197,3.8189,3.8294,3.8294,3.8356,3.8357,3.8357]}]]